Location: Cañada de la Miga
(34.7595°N, 106.2317°W)
Time: 22:08:24
(UTC+00:00)

A-11 Canister half - All Passes

Search period start: 06 December 2021 00:00
Search period end: 16 December 2021 00:00
Orbit: 1524 x 1685 km, 47.3° (Epoch: 06 December)

Date Brightness Start Highest point End Pass type
(mag) Time Alt. Az. Time Alt. Az. Time Alt. Az.
06 Dec - 06:11:39 10° SSW 06:21:10 49° SE 06:30:45 10° ENE night (unlit)
06 Dec - 08:16:06 10° WSW 08:26:12 65° NNW 08:36:16 10° NE visible
06 Dec - 10:23:34 10° WNW 10:32:59 40° N 10:42:15 10° ENE visible
06 Dec - 12:30:22 10° NW 12:40:08 51° NNE 12:49:34 10° E visible
06 Dec - 14:35:51 10° WNW 14:45:43 71° SW 14:55:13 10° SE daylight
06 Dec - 16:43:35 10° W 16:49:27 18° WSW 16:55:13 10° SSW daylight
07 Dec - 05:50:06 10° SSW 05:59:31 46° SE 06:08:59 10° ENE night (unlit)
07 Dec - 07:54:20 10° WSW 08:04:27 68° NNW 08:14:34 10° NE visible
07 Dec - 10:01:45 10° WNW 10:11:11 41° N 10:20:28 10° ENE visible
07 Dec - 12:08:37 10° NW 12:18:22 50° NNE 12:27:48 10° E visible
07 Dec - 14:14:06 10° WNW 14:24:02 74° SW 14:33:36 10° SE daylight
07 Dec - 16:21:33 10° W 16:27:51 19° WSW 16:34:03 10° SSW daylight
08 Dec - 05:28:34 10° SSW 05:37:51 43° SE 05:47:13 10° ENE night (unlit)
08 Dec - 07:32:34 10° WSW 07:42:42 70° NNW 07:52:51 10° NE visible
08 Dec - 09:39:54 10° WNW 09:49:23 41° N 09:58:43 10° ENE visible
08 Dec - 11:46:52 10° NW 11:56:35 49° NNE 12:06:02 10° E visible
08 Dec - 13:52:22 10° WNW 14:02:22 78° SW 14:11:59 10° SE daylight
08 Dec - 15:59:34 10° W 16:06:15 21° SW 16:12:49 10° SSW daylight
09 Dec - 05:07:04 10° SSW 05:16:12 41° SE 05:25:25 10° ENE night (unlit)
09 Dec - 07:10:50 10° WSW 07:20:58 73° NNW 07:31:09 10° NE night (unlit)
09 Dec - 09:18:05 10° WNW 09:27:34 42° N 09:36:57 10° ENE visible
09 Dec - 11:25:07 10° NW 11:34:49 48° NNE 11:44:15 10° E visible
09 Dec - 13:30:39 10° NW 13:40:41 81° SW 13:50:21 10° SE visible
09 Dec - 15:37:36 10° WNW 15:44:39 23° SW 15:51:34 10° S daylight
10 Dec - 04:45:34 10° SSW 04:54:33 39° SE 05:03:38 10° ENE night (unlit)
10 Dec - 06:49:05 10° WSW 06:59:14 75° NNW 07:09:26 10° NE night (unlit)
10 Dec - 08:56:15 10° WNW 09:05:46 42° N 09:15:12 10° ENE visible
10 Dec - 11:03:20 10° NW 11:13:02 47° NNE 11:22:28 10° E visible
10 Dec - 13:08:55 10° NW 13:19:00 85° SW 13:28:43 10° SE visible
10 Dec - 15:15:40 10° WNW 15:23:03 24° SW 15:30:16 10° S daylight
11 Dec - 04:24:05 10° SSW 04:32:54 36° SE 04:41:50 10° ENE visible
11 Dec - 06:27:21 10° WSW 06:37:30 78° NNW 06:47:43 10° NE night (unlit)
11 Dec - 08:34:26 10° W 08:43:58 43° N 08:53:26 10° ENE visible
11 Dec - 10:41:35 10° WNW 10:51:15 46° NNE 11:00:41 10° E visible
11 Dec - 12:47:11 10° NW 12:57:19 88° SW 13:07:03 10° SE visible
11 Dec - 14:53:45 10° WNW 15:01:26 26° SW 15:08:56 10° S daylight
12 Dec - 04:02:38 10° S 04:11:15 34° SE 04:20:00 10° ENE visible
12 Dec - 06:05:39 10° WSW 06:15:46 81° NW 06:26:01 10° NE night (unlit)
12 Dec - 08:12:36 10° W 08:22:10 43° NNW 08:31:41 10° ENE visible
12 Dec - 10:19:49 10° WNW 10:29:28 45° NNE 10:38:53 10° E visible
12 Dec - 12:25:28 10° NW 12:35:37 89° NE 12:45:24 10° SE visible
12 Dec - 14:31:53 10° WNW 14:39:49 28° SW 14:47:34 10° S daylight
13 Dec - 03:41:11 10° S 03:49:37 32° SE 03:58:10 10° ENE visible
13 Dec - 05:43:55 10° SW 05:54:03 84° NW 06:04:18 10° NE night (unlit)
13 Dec - 07:50:47 10° W 08:00:22 44° NNW 08:09:56 10° ENE visible
13 Dec - 09:58:03 10° WNW 10:07:41 44° NNE 10:17:05 10° E visible
13 Dec - 12:03:45 10° NW 12:13:54 86° NE 12:23:43 10° SE visible
13 Dec - 14:10:01 10° WNW 14:18:12 30° SW 14:26:11 10° S daylight
14 Dec - 03:19:46 10° S 03:27:58 30° SE 03:36:18 10° ENE visible
14 Dec - 05:22:13 10° SW 05:32:19 87° NW 05:42:35 10° NE visible
14 Dec - 07:28:57 10° W 07:38:34 45° NNW 07:48:10 10° ENE visible
14 Dec - 09:36:17 10° WNW 09:45:52 44° NNE 09:55:17 10° E visible
14 Dec - 11:42:00 10° NW 11:52:11 83° NE 12:02:02 10° ESE visible
14 Dec - 13:48:10 10° WNW 13:56:35 32° SW 14:04:47 10° S daylight
15 Dec - 02:58:22 10° S 03:06:21 28° SE 03:14:27 10° ENE visible
15 Dec - 05:00:32 10° SW 05:10:37 90° ESE 05:20:52 10° NE visible
15 Dec - 07:07:09 10° W 07:16:46 46° NNW 07:26:26 10° ENE night (unlit)
15 Dec - 09:14:30 10° WNW 09:24:04 43° N 09:33:29 10° E visible
15 Dec - 11:20:17 10° NW 11:30:29 80° NE 11:40:21 10° ESE visible
15 Dec - 13:26:19 10° WNW 13:34:57 34° SW 13:43:22 10° S visible
